Regional Weather Roundup
Issued by NWS Wakefield, VA

Home | Current Version | Previous Version | Text Only | Print | Product List | Glossary Off
Versions: 1 2 3 4 5 6 7 8 9 10 11 12 13 14 15 16 17 18 19 20 21 22 23 24 25 26 27 28 29 30 31 32 33 34 35 36 37 38 39 40 41 42 43 44 45 46 47 48 49 50

000
ASUS41 KAKQ 251310
RWRAKQ

REGIONAL WEATHER ROUNDUP
NATIONAL WEATHER SERVICE WAKEFIELD VA
900 AM EDT FRI JUL 25 2014

Note: "fair" indicates few or no clouds below 12,000 feet with no
significant weather and/or obstructions to visibility. * = Denotes
station may not report precipitation (e.g., rain,snow,etc.),
thunder or fog.

VAZ042-051-052>054-056-251400-
NORTHERN VIRGINIA

CITY           SKY/WX    TMP DP  RH WIND       PRES   REMARKS
WASH NATIONAL  MOSUNNY   72  51  47 N10       30.08R
DULLES         MOSUNNY   67  49  52 N7        30.09R
FORT BELVOIR   SUNNY     70  55  59 VRB5      30.09R
QUANTICO       MOSUNNY   70  56  61 NE6       30.09R
FREDERICKSBRG* SUNNY     67  62  83 CALM      30.08R
STAFFORD*      SUNNY     68  62  80 N3        30.13R
WARRENTON      SUNNY     69  61  75 N6        30.10R
CULPEPER*      SUNNY    N/A N/A N/A CALM      30.11R
MANASSAS*      SUNNY     68  55  64 N10       30.09R
LEESBURG*      SUNNY     68  52  56 N7        30.11R
WINCHESTER     SUNNY     68  52  56 NE5       30.11R
$$

VAZ048-049-060>072-079>083-251400-
CENTRAL AND SOUTH CENTRAL VIRGINIA...AND NORTH CENTRAL NORTH CAROLINA

CITY           SKY/WX    TMP DP  RH WIND       PRES   REMARKS
RICHMOND       MOSUNNY   72  63  73 N5        30.07R
CHESTERFIELD*  SUNNY     70  55  60 N3        30.09R
HANOVER        SUNNY     69  62  78 N5        30.09R
TAPPAHANNOCK*  SUNNY     71  62  74 CALM      30.08R
CHARLOTTSVILLE MOSUNNY   68  60  75 NE7       30.10R
ORANGE*        SUNNY     68  59  73 NE5       30.11R
LOUISA*        SUNNY     68  61  77 N3        30.09R
FARMVILLE*     SUNNY     70  68  94 NE5       30.07R
SOUTH HILL*    SUNNY     72  70  94 N5        30.12S
ROANOKE RAPIDS MOSUNNY   64  61  88 N6        30.06S
RALEIGH        PTSUNNY   71  67  87 NE5       30.07R
$$

VAZ088>098-251400-
SOUTHEAST VIRGINIA

CITY           SKY/WX    TMP DP  RH WIND       PRES   REMARKS
NORFOLK        SUNNY     76  64  66 NE10      30.04R
VIRGINIA BEACH MOSUNNY   75  66  73 N10       30.03R
NORFOLK NAVAL  MOSUNNY   77  66  68 N9        30.06R
WEST POINT*    SUNNY     74  63  67 N3        30.08R
NEWPORT NEWS   SUNNY     78  66  66 N6        30.05R
LANGLEY AFB    SUNNY     75  66  74 N10       30.04R
FORT EUSTIS    SUNNY     74  64  70 VRB6      30.04R
WILLIAMSBURG*  SUNNY     70  68  94 N3        30.07R
FRANKLIN*      MOSUNNY   72  68  88 CALM      30.06R
WAKEFIELD      SUNNY     73  65  75 VRB3      30.07R
$$

VAZ020-022-025-037-045-251400-
WESTERN AND SOUTHWEST VIRGINIA

CITY           SKY/WX    TMP DP  RH WIND       PRES   REMARKS
STAUNTON*      CLOUDY    66  60  79 CALM      30.14R
HOT SPRINGS VA CLOUDY    57  53  85 E3        30.21R
LYNCHBURG      CLOUDY    71  67  87 CALM      30.11R
DANVILLE       SUNNY     72  65  78 NE6       30.08S
MARTINSVILLE   MOSUNNY   73  66  79 CALM      30.12R
ROANOKE        MOSUNNY   68  62  81 CALM      30.13R
BLACKSBURG     CLOUDY    66  64  94 CALM        N/A
DUBLIN*        MOSUNNY   66  61  85 CALM      30.15R
MARION*        SUNNY    N/A N/A N/A E5        30.17R
HILLSVILLE*    MOSUNNY   64  60  87 CALM      30.15R
RICHLANDS*     CLOUDY    61  59  93 CALM      30.15R FOG
WISE*          CLOUDY    59  59 100 CALM      30.16R FOG
ABINGDON*      MOSUNNY   65  63  91 SE6       30.12S
$$

MDZ021>025-VAZ099-100-251400-
SOUTHERN MARYLAND AND THE DELMARVA PENINSULA

CITY           SKY/WX    TMP DP  RH WIND       PRES   REMARKS
PATUXENT RIVER MOSUNNY   71  62  73 NW10      30.06R
BAY BRIDGE APT   N/A     70  54  56 N9        30.05S
LEONARDTOWN    SUNNY     68  57  68 CALM      30.07R
DOVER          SUNNY     68  57  68 NW8       30.02S
GEORGETOWN     SUNNY     69  56  62 VRB6      30.04R
EASTON         SUNNY     72  57  60 N8        30.08R
CAMBRIDGE      SUNNY     72  54  53 N6        30.04R
SALISBURY      NOT AVBL
OCEAN CITY     SUNNY     72  61  68 NW9       30.02R
WALLOPS ISLAND MOSUNNY   73  60  63 N8        30.04R
ACCOMACK*        N/A     72  61  68 N5        30.04R
$$

NCZ012>017-030>032-251400-
EASTERN NORTH CAROLINA

CITY           SKY/WX    TMP DP  RH WIND       PRES   REMARKS
ELIZABETH CITY SUNNY     75  69  81 NW9       30.03R
AHOSKIE*       SUNNY     70  66  87 N6        30.06S
EDENTON*       MOSUNNY   73  70  89 N10       30.04R
CURRITUCK*     SUNNY     75  70  85 NW8       30.04R
KILL DEVIL HLS SUNNY     75  69  80 N6        30.01R
MANTEO         NOT AVBL
CAPE HATTERAS  MOSUNNY   77  72  84 VRB5      30.02R
GOLDSBORO      CLOUDY    70  69  99 NE7       30.04R
WASHINGTON     CLOUDY    70  67  90 N5        30.06R
GREENVILLE     CLOUDY    70  68  94 NE6       30.07R FOG
NEW BERN       CLOUDY    73  68  84 NE8       30.05R
WILMINGTON     CLOUDY    72  71  97 N9        30.03R FOG
$$

VAZ048-251400-
ELSEWHERE

CITY           SKY/WX    TMP DP  RH WIND       PRES   REMARKS
HARRISBURG PA  SUNNY     67  51  56 W8        30.08R
BALTIMORE      MOSUNNY   69  53  56 NW6       30.07R
ANNAPOLIS      SUNNY     70  56  61 NW7       30.05R
ANDREWS AFB    SUNNY     69  53  56 N8        30.08R
WILMINGTON DE  SUNNY     69  54  58 N9        30.05R
PHILADELPHIA   MOSUNNY   71  53  52 N8        30.04R
WILDWOOD NJ*   SUNNY     70  55  60 N6        30.03S
ATLANTIC CITY  SUNNY     71  58  63 N7        30.02R
HENDERSON NC   CLOUDY    70  66  88 NE6       30.07S
GREENSBORO     PTSUNNY   71  66  84 NE7       30.07S
ROCKY MOUNT    CLOUDY    72  68  87 N8        30.06R
FAYETTEVILLE   PTSUNNY   73  67  81 NE8       30.05R
CHARLOTTE      CLOUDY    70  64  81 NE7       30.08R
$$

VAZ100-251400-
MARINE

STATION/POSITION TIME  TEMP    WIND        PRES    WAVE   SWELL
                       AIR SEA DIR/SP/G            HT/PER HT/PER
                 (UTC) (F)     (DEG/KT/KT) (MB)    (FT/S) (FT/S)
44066 TX TWR #4  1300   72 74   20/ 10/ 12 1014.8R   3/ 8   2/ 8
CAPE MAY NJ      1300   70 77  340/  8/ 11 1016.3R
LEWES DE         1300   68 72  330/ 12/ 13 1016.5R
15NM E FENWICK I 1300   70 76              1016.2R   3/ 4
OCEAN-CITY-INLET 1300   69 69  360/ 10/ 13 1016.1R
WACHAPREAGUE VA  1300   72 79  330/  5/  9 1016.9R
THOMAS POINT MD  1300   68 78  340/  9/ 11 1018.2R
GOOSES REEF MD   1300   70     360/ 10/ 14 1018.1R
COVE POINT MD    1300   71     360/ 12/ 17 1017.6R
SOLOMONS ISLAND  1300      80                N/A
BISHOPS HEAD MD  1300   71 75   10/  9/ 12 1016.9R
PINEY POINT MD   1300          350/  7/  8   N/A
POTOMAC MD       1300   74      30/ 10/ 14 1016.8R
CAMBRIDGE MD     1300   70 79  360/  8/ 10 1017.1R
LEWISETTA VA     1300   74 79  360/  6/  8 1017.5R
RAPPAHANNOCK LGT 1300           10/ 15/ 16 1017.7S
STINGRAY PT      1300   75      30/ 14/ 16 1018.0R
YORK RVR RNG VA  1300   74      20/ 12/ 14 1016.8R
YORKTOWN VA      1300   73 80   10/  9/ 12 1017.3R
JAMESTOWN VA     1300   71      30/  4/  8   N/A
DOMINION TERM VA 1300   75      20/  2/  8 1017.4R
KIPTOPEKE VA     1300      81   20/  7/ 11   N/A
CHES BAY BRIDGE  1300   74 78   20/ 12/ 14 1016.4R
CAPE HENRY VA    1300   73      10/ 12/ 13 1015.8R
WILLOUBY STN VA  1300          360/ 10/ 12 1016.5R
S CRANEY ISL VA  1300          330/  9/ 12 1017.3R
CAPE HENRY BUOY  1300      77                N/A     2/ 3
1ST LANDING BUOY 1300   74      10/ 14/ 16 1016.7R
CAPE CHARLES BUO 1300      75                N/A     2/ 7
OFFSHORE WE BUOY 1300      78                N/A     2/ 7
64NM E OF VA BCH 1300   77 78  330/ 12/ 14 1015.4R   2/ 7   2/ 7
DUCK PIER NC     1300   74 75  330/  8/  9 1015.8R
44056 DUCK FRF   1300                        N/A     2/ 4
OREGON INLET NC  1300   76 77  350/ 10/ 13 1016.3R
HATTERAS NC      1300   75 79  350/ 13/ 14 1016.9R
DIAMOND SHLS NC  1300          VRB 12/ 16  1016.0R   3/ 7   2/ 7
CAPE LOOKOUT NC  1300   73      10/  9/ 11 1016.5S
$$



USA.gov is the U.S. government's official web portal to all federal, state and local government web resources and services.